Regional Weather Roundup
Issued by NWS Northern Indiana

Home | Current Version | Previous Version | Text Only | Print | Product List | Glossary Off
Versions: 1 2 3 4 5 6 7 8 9 10 11 12 13 14 15 16 17 18 19 20 21 22 23 24 25 26 27 28 29 30 31 32 33 34 35 36 37 38 39 40 41 42 43 44 45 46 47 48 49 50

000
ASUS43 KIWX 031010
RWRIWX

KIWX WEATHER ROUNDUP
NATIONAL WEATHER SERVICE NORTHERN INDIANA
600 AM EDT WED JUN 03 2015

NOTE: "FAIR" INDICATES FEW OR NO CLOUDS BELOW 12,000 FEET WITH NO
SIGNIFICANT WEATHER AND/OR OBSTRUCTIONS TO VISIBILITY.

* THESE STATIONS ARE NOT UNDER NWS QUALITY CONTROL. THEY ALSO MAY NOT
  REPORT WEATHER SUCH AS PRECIPITATION OR FOG.

INZ001>027-031100-
NORTHERN INDIANA

CITY           SKY/WX    TMP DP  RH WIND       PRES   REMARKS
GARY*          PTCLDY    54  50  87 SE5       30.09S
VALPARAISO     CLEAR     49  47  93 NE5       30.09S
MICHIGAN CITY* CLEAR     45  45 100 CALM      30.10S FOG
LAPORTE*       CLEAR     47  47 100 CALM      30.10S
KNOX*          CLEAR     48  46  93 CALM      30.08S
SOUTH BEND     CLEAR     50  44  80 CALM      30.10S
GOSHEN         CLEAR     47  44  90 NE3       30.10R
MONTICELLO*    CLEAR     52  50  93 CALM      30.07S
LOGANSPORT*    CLEAR     50  45  81 NE3       30.09R
ROCHESTER*     CLEAR     50  46  87 CALM      30.09S
WARSAW*        CLEAR     45  45 100 CALM      30.09S
ANGOLA*        CLEAR     48  46  93 E5        30.10S
FORT WAYNE     PTCLDY    49  45  86 NE3       30.10S
HUNTINGTON*    CLEAR     45  44  96 CALM      30.09S
MARION*        CLEAR     49  47  95 CALM      30.09S

$$
INZ028>050-031100-
CENTRAL INDIANA

CITY           SKY/WX    TMP DP  RH WIND       PRES   REMARKS
LAFAYETTE      CLEAR     48  48 100 E3        30.07S FOG
KOKOMO*        CLEAR     48  46  93 CALM      30.08S
MUNCIE*        CLEAR     50  48  93 CALM      30.08S FOG
INDIANAPOLIS   PTCLDY    53  48  83 E5        30.06R

$$
MIZ043>046-050>051-056>058-064>065-071>073-077>080-031100-
SOUTHWEST LOWER MICHIGAN

CITY           SKY/WX    TMP DP  RH WIND       PRES   REMARKS
BATTLE CREEK   CLEAR     49  44  83 E3        30.12S
BENTON HARBOR  CLEAR     43  42  97 CALM      30.09F
COLDWATER*     CLEAR     46  45  97 E3        30.11S
HILLSDALE*     CLEAR     50  49  93 E3        30.12R
HOLLAND        CLEAR     48  43  82 E7        30.12S
GRAND RAPIDS   PTCLDY    49  46  90 CALM      30.13R
KALAMAZOO      CLEAR     47  43  86 CALM      30.11S
STURGIS*       CLEAR     48  46  93 CALM      30.10S
THREE RIVERS*  FAIR      47  44  90 CALM      30.11S

$$
OHZ001>008-015>018-024>025-031100-
NORTHWEST OHIO

CITY           SKY/WX    TMP DP  RH WIND       PRES   REMARKS
WAUSEON*       MOCLDY    48  48 100 NE5       30.11S
DEFIANCE       MOCLDY    49  46  90 CALM      30.11S
FINDLAY        CLEAR     51  48  89 CALM      30.09S
TOLEDO EXPRESS CLEAR     47  45  93 CALM      30.11S
TOLEDO METCALF CLEAR     51  47  86 CALM      30.12R
LIMA           CLOUDY    53  51  93 CALM      30.10R

$$
AND FOR LAKE MICHIGAN COASTAL AND OPEN LAKE BUOY OBSERVATIONS

STATION/POSITION TEMP    WIND        PRES    VSBY  WAVE
                 AIR SEA DIR/SP/G                  HT/PER
                 (F)     (DEG/KT/KT) (MB)    (MI)  (FT/S)
CALUMET HARBOR    57     130/  4/  6   N/A
MICHIGAN CITY     53     120/  6/  7   N/A
BURNS HARBOR             140/  8/ 14 1019.3R
SAINT JOSEPH      50      CALM  /  1 1019.3S
SOUTH LAKE BUOY   45 38  150/  6/  6 1019.4R
4 MI NW BRIDGMAN  54 55  160/  6/  8   N/A           0
MICHIGAN CITY     55 56  140/  6/  6   N/A           1

$$
&&


USA.gov is the U.S. government's official web portal to all federal, state and local government web resources and services.